Location: NJAA Observatory
(40.6819°N, 74.8979°W)
Time: 16:59:12
(UTC-04:00)

Landsat 5 - Visible Passes

Search period start: 18 April 2014 00:00
Search period end: 28 April 2014 00:00
Orbit: 535 x 670 km, 98.1° (Epoch: 17 April)

Date Brightness Start Highest point End Pass type
(mag) Time Alt. Az. Time Alt. Az. Time Alt. Az.
18 Apr 5.5 22:44:33 22° N 22:44:33 22° N 22:46:06 10° N visible
19 Apr 5.5 22:56:30 23° N 22:56:30 23° N 22:58:07 10° N visible
20 Apr 5.6 23:08:27 23° NNW 23:08:27 23° NNW 23:10:04 10° NNW visible
21 Apr 5.7 23:20:23 22° NNW 23:20:23 22° NNW 23:21:57 10° NNW visible
22 Apr 5.7 21:55:31 13° NE 21:55:31 13° NE 21:56:42 10° NNE visible
22 Apr 5.9 23:32:19 20° NW 23:32:19 20° NW 23:33:45 10° NNW visible
23 Apr 5.5 22:07:27 17° NE 22:07:27 17° NE 22:09:10 10° NNE visible
23 Apr 6.0 23:44:15 17° NW 23:44:15 17° NW 23:45:29 10° NNW visible
24 Apr 5.3 22:19:23 21° NE 22:19:23 21° NE 22:21:27 10° NNE visible
24 Apr 6.2 23:56:10 15° NW 23:56:10 15° NW 23:57:06 10° NW visible
25 Apr 5.1 22:31:18 26° NNE 22:31:18 26° NNE 22:33:37 10° N visible
26 Apr 6.4 00:08:06 12° NW 00:08:06 12° NW 00:08:33 10° NW visible
26 Apr 4.9 22:43:14 31° NNE 22:43:14 31° NNE 22:45:41 10° N visible
27 Apr 4.8 22:55:09 35° N 22:55:09 35° N 22:57:41 10° N visible
